This demonstration page uses our WeatherBlox Daily Observations layout. Learn more.

Left ArrowRight Arrow

Hourly Observations for September 22, 2019

Temp ( °F °C ) Dew Point ( °F °C ) Humidity (%) Winds ( mph kmh ) Pressure ( in mb ) Visibility ( mi km ) Precip ( " mm )
12:59 am 00:59 Clear 70 21.1 62 16.7 76 76 S 6 9 30.23 1024 10 16 0.00 0.00
1:59 am 01:59 Clear 69 20.6 62 16.7 78 78 SSW 7 11 30.23 1024 10 16 0.00 0.00
2:59 am 02:59 Clear 68 20 61 16.1 78 78 SSW 8 13 30.22 1023 10 16 0.00 0.00
3:59 am 03:59 Clear 68 20 61 16.1 78 78 SW 8 13 30.21 1023 10 16 0.00 0.00
4:59 am 04:59 Clear 67 19.4 61 16.1 81 81 SSW 5 7 30.20 1023 10 16 0.00 0.00
5:59 am 05:59 Clear 66 18.9 60 15.6 81 81 SSW 6 9 30.20 1023 10 16 0.00 0.00
6:59 am 06:59 Mostly Sunny 66 18.9 60 15.6 81 81 SSW 6 9 30.21 1023 10 16 0.00 0.00
7:59 am 07:59 Mostly Sunny 69 20.6 60 15.6 73 73 SSW 5 7 30.21 1023 10 16 0.00 0.00
8:59 am 08:59 Mostly Sunny 72 22.2 62 16.7 71 71 SSW 5 7 30.22 1023 10 16 0.00 0.00
9:59 am 09:59 Mostly Sunny 77 25 63 17.2 62 62 S 6 9 30.22 1023 10 16 0.00 0.00
10:59 am 10:59 Mostly Sunny 80 26.7 64 17.8 58 58 SSW 7 11 30.21 1023 10 16 0.00 0.00
11:59 am 11:59 Mostly Sunny 83 28.3 65 18.3 55 55 S 9 15 30.19 1023 10 16 0.00 0.00
12:59 pm 12:59 Mostly Cloudy 83 28.3 64 17.8 53 53 SW 12 19 30.18 1022 10 16 0.00 0.00
1:59 pm 13:59 Partly Cloudy 85 29.4 64 17.8 50 50 VRB 5 7 30.15 1021 10 16 0.00 0.00
2:59 pm 14:59 Partly Cloudy 86 30 65 18.3 49 49 SSW 8 13 30.13 1020 10 16 0.00 0.00
3:59 pm 15:59 Partly Cloudy 86 30 64 17.8 48 48 SW 12 19 30.11 1020 10 16 0.00 0.00
4:59 pm 16:59 Mostly Cloudy 85 29.4 65 18.3 51 51 WSW 8 13 30.11 1020 10 16 0.00 0.00
5:59 pm 17:59 Mostly Cloudy 83 28.3 64 17.8 53 53 SSW 6 9 30.11 1020 10 16 0.00 0.00
6:59 pm 18:59 Mostly Cloudy 80 26.7 63 17.2 56 56 SSW 7 11 30.11 1020 10 16 0.00 0.00
7:59 pm 19:59 Partly Cloudy 78 25.6 65 18.3 64 64 S 7 11 30.11 1020 10 16 0.00 0.00
8:59 pm 20:59 Clear 76 24.4 64 17.8 67 67 S 7 11 30.12 1020 10 16 0.00 0.00
9:59 pm 21:59 Clear 75 23.9 64 17.8 69 69 S 9 15 30.11 1020 10 16 0.00 0.00
10:59 pm 22:59 Clear 73 22.8 62 16.7 69 69 S 9 15 30.12 1020 10 16 0.00 0.00
11:59 pm 23:59 Clear 72 22.2 63 17.2 73 73 SSW 10 17 30.11 1020 10 16 0.00 0.00

Powered by AerisWeather